• în Republica Moldova
  • Lista ţărilor
  • Pe 7 zile
  • Temperatura apei
  • Hartă satelitară
  • Meteo pe hartă
  • Widget-uri
  • user-avatar
    Intrare

    Meteo pe oră la Wiktoria

    Astăzi, 20 Ianuarie, Vineri

    Timp Temperatura Precipitaţii Vânt Presiune Umiditate
    00:00 +24°C° 0 mm 1 m/s 738 mmHg 33%
    01:00 +24°C° 0 mm 1 m/s 737 mmHg 34%
    02:00 +24°C° 0,1 mm 2 m/s 737 mmHg 41%
    03:00 +24°C° 0,1 mm 2 m/s 736 mmHg 48%
    04:00 +22°C° 0 mm 1 m/s 736 mmHg 55%
    05:00 +21°C° 1,2 mm 1 m/s 736 mmHg 66%
    06:00 +21°C° 1,2 mm 1 m/s 735 mmHg 76%
    07:00 +20°C° 1,2 mm 1 m/s 735 mmHg 87%
    08:00 +21°C° 0,4 mm 1 m/s 735 mmHg 86%
    09:00 +21°C° 0,4 mm 1 m/s 736 mmHg 85%
    10:00 +21°C° 0 mm 2 m/s 736 mmHg 82%
    11:00 +22°C° 0 mm 3 m/s 736 mmHg 70%
    12:00 +25°C° 0 mm 3 m/s 737 mmHg 58%
    13:00 +27°C° 0 mm 4 m/s 737 mmHg 46%
    14:00 +26°C° 0 mm 4 m/s 738 mmHg 45%
    15:00 +26°C° 0 mm 4 m/s 738 mmHg 45%
    16:00 +23°C° 0 mm 4 m/s 739 mmHg 45%
    17:00 +22°C° 0 mm 4 m/s 740 mmHg 49%
    18:00 +20°C° 0 mm 4 m/s 741 mmHg 53%
    19:00 +19°C° 0 mm 3 m/s 742 mmHg 56%
    20:00 +18°C° 0 mm 3 m/s 742 mmHg 61%
    21:00 +17°C° 0 mm 3 m/s 743 mmHg 65%
    22:00 +15°C° 0 mm 2 m/s 744 mmHg 69%
    23:00 +15°C° 0 mm 2 m/s 744 mmHg 71%

    Mâine, 21 Ianuarie, Sâmbătă

    Timp Temperatura Precipitaţii Vânt Presiune Umiditate
    00:00 +14°C° 0 mm 2 m/s 745 mmHg 73%
    01:00 +14°C° 0 mm 2 m/s 745 mmHg 75%
    02:00 +14°C° 0 mm 2 m/s 746 mmHg 76%
    03:00 +13°C° 0 mm 2 m/s 746 mmHg 78%
    04:00 +13°C° 0 mm 2 m/s 746 mmHg 79%
    05:00 +13°C° 0 mm 2 m/s 747 mmHg 77%
    06:00 +14°C° 0 mm 2 m/s 747 mmHg 74%
    07:00 +14°C° 0 mm 2 m/s 748 mmHg 71%
    08:00 +17°C° 0 mm 2 m/s 748 mmHg 62%
    09:00 +19°C° 0 mm 2 m/s 748 mmHg 53%
    10:00 +21°C° 0 mm 2 m/s 748 mmHg 43%
    11:00 +24°C° 0 mm 2 m/s 748 mmHg 38%
    12:00 +26°C° 0 mm 2 m/s 748 mmHg 33%
    13:00 +28°C° 0 mm 2 m/s 747 mmHg 28%
    14:00 +29°C° 0 mm 2 m/s 747 mmHg 27%
    15:00 +29°C° 0 mm 2 m/s 747 mmHg 27%
    16:00 +30°C° 0 mm 2 m/s 746 mmHg 26%
    17:00 +28°C° 0 mm 2 m/s 747 mmHg 30%
    18:00 +27°C° 0 mm 2 m/s 747 mmHg 34%
    19:00 +26°C° 0 mm 2 m/s 747 mmHg 38%
    20:00 +24°C° 0 mm 2 m/s 747 mmHg 44%
    21:00 +21°C° 0 mm 2 m/s 748 mmHg 50%
    22:00 +19°C° 0 mm 2 m/s 748 mmHg 56%
    23:00 +18°C° 0 mm 2 m/s 748 mmHg 60%

    Poimâine, 22 Ianuarie, Duminică

    Timp Temperatura Precipitaţii Vânt Presiune Umiditate
    00:00 +17°C° 0 mm 2 m/s 748 mmHg 64%
    01:00 +16°C° 0 mm 1 m/s 748 mmHg 68%
    02:00 +16°C° 0 mm 1 m/s 748 mmHg 71%
    03:00 +15°C° 0 mm 1 m/s 748 mmHg 73%
    04:00 +15°C° 0 mm 1 m/s 748 mmHg 76%
    05:00 +16°C° 0 mm 1 m/s 749 mmHg 72%
    06:00 +18°C° 0 mm 1 m/s 749 mmHg 68%
    07:00 +19°C° 0 mm 1 m/s 750 mmHg 64%
    08:00 +22°C° 0 mm 1 m/s 749 mmHg 57%
    09:00 +24°C° 0 mm 1 m/s 749 mmHg 49%
    10:00 +27°C° 0 mm 1 m/s 749 mmHg 42%
    11:00 +29°C° 0 mm 1 m/s 749 mmHg 36%
    12:00 +32°C° 0 mm 1 m/s 748 mmHg 29%
    13:00 +34°C° 0 mm 1 m/s 748 mmHg 23%
    14:00 +35°C° 0 mm 1 m/s 747 mmHg 21%
    15:00 +35°C° 0 mm 1 m/s 746 mmHg 19%
    16:00 +36°C° 0 mm 1 m/s 746 mmHg 18%
    17:00 +34°C° 0 mm 1 m/s 746 mmHg 23%
    18:00 +32°C° 0 mm 1 m/s 746 mmHg 28%
    19:00 +29°C° 0 mm 1 m/s 746 mmHg 33%
    20:00 +28°C° 0 mm 1 m/s 746 mmHg 34%
    21:00 +26°C° 0 mm 1 m/s 746 mmHg 36%
    22:00 +24°C° 0 mm 1 m/s 746 mmHg 38%
    23:00 +24°C° 0 mm 1 m/s 746 mmHg 40%

    23 Ianuarie, Luni

    Timp Temperatura Precipitaţii Vânt Presiune Umiditate
    00:00 +23°C° 0 mm 1 m/s 745 mmHg 42%
    01:00 +23°C° 0 mm 1 m/s 745 mmHg 43%
    02:00 +22°C° 0 mm 1 m/s 745 mmHg 45%
    03:00 +22°C° 0 mm 1 m/s 745 mmHg 46%
    04:00 +21°C° 0 mm 1 m/s 744 mmHg 47%
    05:00 +22°C° 0 mm 1 m/s 744 mmHg 46%
    06:00 +23°C° 0 mm 1 m/s 745 mmHg 44%
    07:00 +24°C° 0 mm 2 m/s 745 mmHg 43%
    08:00 +27°C° 0 mm 2 m/s 745 mmHg 40%
    09:00 +29°C° 0 mm 2 m/s 745 mmHg 38%
    10:00 +31°C° 0 mm 2 m/s 744 mmHg 35%
    11:00 +34°C° 0 mm 2 m/s 744 mmHg 32%
    12:00 +36°C° 0 mm 2 m/s 744 mmHg 29%
    13:00 +38°C° 0 mm 2 m/s 743 mmHg 26%
    14:00 +37°C° 0,1 mm 2 m/s 742 mmHg 29%
    15:00 +36°C° 0,1 mm 1 m/s 742 mmHg 31%
    16:00 +35°C° 0,1 mm 1 m/s 741 mmHg 33%
    17:00 +34°C° 0 mm 1 m/s 741 mmHg 37%
    18:00 +33°C° 0 mm 1 m/s 741 mmHg 40%
    19:00 +31°C° 0 mm 1 m/s 741 mmHg 44%
    20:00 +30°C° 0 mm 1 m/s 742 mmHg 46%
    21:00 +29°C° 0 mm 1 m/s 742 mmHg 48%
    22:00 +28°C° 0 mm 1 m/s 742 mmHg 49%
    23:00 +28°C° 0,2 mm 1 m/s 742 mmHg 54%

    24 Ianuarie, Marţi

    Timp Temperatura Precipitaţii Vânt Presiune Umiditate
    00:00 +27°C° 0,2 mm 1 m/s 742 mmHg 58%
    01:00 +26°C° 0,2 mm 1 m/s 742 mmHg 62%
    02:00 +25°C° 0,6 mm 1 m/s 743 mmHg 69%
    03:00 +25°C° 0,6 mm 1 m/s 743 mmHg 76%
    04:00 +24°C° 0,6 mm 1 m/s 743 mmHg 83%
    05:00 +24°C° 0,1 mm 1 m/s 744 mmHg 81%
    06:00 +24°C° 0,1 mm 1 m/s 745 mmHg 79%
    07:00 +24°C° 0,1 mm 1 m/s 746 mmHg 77%
    08:00 +25°C° 0 mm 2 m/s 746 mmHg 67%
    09:00 +26°C° 0 mm 2 m/s 747 mmHg 56%
    10:00 +28°C° 0 mm 2 m/s 747 mmHg 45%
    11:00 +29°C° 0 mm 2 m/s 747 mmHg 42%
    12:00 +30°C° 0 mm 2 m/s 747 mmHg 38%
    13:00 +31°C° 0 mm 2 m/s 747 mmHg 34%
    14:00 +31°C° 0 mm 3 m/s 747 mmHg 33%
    15:00 +31°C° 0 mm 3 m/s 748 mmHg 31%
    16:00 +31°C° 0 mm 3 m/s 748 mmHg 29%
    17:00 +29°C° 0 mm 3 m/s 748 mmHg 33%
    18:00 +27°C° 0 mm 3 m/s 749 mmHg 37%
    19:00 +25°C° 0 mm 3 m/s 750 mmHg 41%
    20:00 +22°C° 0 mm 3 m/s 750 mmHg 46%
    21:00 +20°C° 0 mm 3 m/s 751 mmHg 52%
    22:00 +19°C° 0 mm 3 m/s 752 mmHg 57%
    23:00 +18°C° 0 mm 3 m/s 752 mmHg 59%

    25 Ianuarie, Miercuri

    Timp Temperatura Precipitaţii Vânt Presiune Umiditate
    00:00 +17°C° 0 mm 3 m/s 752 mmHg 60%
    01:00 +16°C° 0 mm 2 m/s 752 mmHg 62%
    02:00 +16°C° 0 mm 2 m/s 752 mmHg 64%
    03:00 +15°C° 0 mm 2 m/s 752 mmHg 66%
    04:00 +14°C° 0 mm 2 m/s 752 mmHg 69%
    05:00 +15°C° 0 mm 2 m/s 753 mmHg 68%
    06:00 +15°C° 0 mm 1 m/s 753 mmHg 67%
    07:00 +15°C° 0 mm 1 m/s 753 mmHg 66%
    08:00 +19°C° 0 mm 1 m/s 753 mmHg 57%
    09:00 +23°C° 0 mm 1 m/s 753 mmHg 48%
    10:00 +26°C° 0 mm 1 m/s 753 mmHg 39%
    11:00 +28°C° 0 mm 1 m/s 752 mmHg 33%
    12:00 +30°C° 0 mm 1 m/s 751 mmHg 28%
    13:00 +32°C° 0 mm 1 m/s 751 mmHg 22%
    14:00 +32°C° 0 mm 1 m/s 750 mmHg 21%
    15:00 +34°C° 0 mm 2 m/s 750 mmHg 19%
    16:00 +34°C° 0 mm 2 m/s 750 mmHg 18%
    17:00 +31°C° 0 mm 2 m/s 750 mmHg 23%
    18:00 +29°C° 0 mm 2 m/s 750 mmHg 27%
    19:00 +27°C° 0 mm 3 m/s 750 mmHg 32%
    20:00 +25°C° 0 mm 3 m/s 751 mmHg 39%
    21:00 +22°C° 0 mm 3 m/s 751 mmHg 46%
    22:00 +19°C° 0 mm 3 m/s 751 mmHg 54%
    23:00 +18°C° 0 mm 3 m/s 751 mmHg 57%
    Arată mai mult